Главная страница
METAR-TAF:

METAR-TAF

Аэропорты :

Liverpool Bay, Северо-Западные Территории, Канада

широта: 69-36N, долгота: 130-54W, высота над уровнем моря: 102 м

Текущие метеонаблюдения

Эта сводка был подготовлена 21 минут назад, в 19:00 UTC
Ветер 12 Узел от северо-западный
Температура -4°C
Влажность 86%
Давление 1027 hPa
Сплошная облачность на высоте 1200 фута

METAR: CWLI 181900Z AUTO 31012KT ////SM //// OVC012 M04/M06 A3032

Время: 13:21 (19:21 UTC)


TAF: отсутствует

Метеонаблюдения и прогнозы для более 4000 аэропортов (сводки METAR и TAF).

Имеющиеся станции представлены на карте желтыми и красными точками.

Чтобы увидеть название станции, наведите на нее мышь.

Затем щелкните, чтобы увидеть метеонаблюдения и метеопрогнозы.

Управление картой: чтобы увеличить масштаб, щелкните зеленые кнопки с черным крестиком; чтобы уменьшить масштаб, щелкните зеленую кнопку с тире; для просмотра соседних карт щелкайте зеленые стрелки.


METAR-TAF: